Location: *
(58.7167°N, 26.1833°E)
Time: 21:59:46
(UTC+00:00)

MINOTAUR IV R/B - Pass Details

Date: 25 August 2019
Orbit: 619 x 645 km, 72.0° (Epoch: 01 September)

Event Time Altitude Azimuth Distance (km) Brightness Sun altitude
Rises 19:49:14 0° 211° (SSW) 2,907 7.8 -14.5°
Reaches altitude 10° 19:51:30 10° 211° (SSW) 2,000 7.0 -14.6°
Maximum altitude 19:55:59 84° 124° (SE) 634 4.5 -15.0°
Drops below altitude 10° 20:00:29 10° 36° (NE) 2,002 7.4 -15.3°
Sets 20:02:45 0° 36° (NE) 2,911 8.3 -15.5°
